timestamp,wind_dir_avg,wind_spd_max_dir,wind_spd_avg,wind_spd_gust,battery_voltage,lat,long
2018-01-04 00:00:00+00:00,297.0,301.0,8.7,10.65,,47.59359,-54.27349
2018-01-04 00:10:00+00:00,296.0,302.0,8.48,10.1,,47.59359,-54.27349
2018-01-04 00:20:00+00:00,296.0,299.0,8.59,10.84,,47.59359,-54.27349
2018-01-04 00:30:00+00:00,291.0,287.0,8.93,11.29,,47.59359,-54.27349
2018-01-04 00:40:00+00:00,298.0,303.0,7.83,9.65,,47.59359,-54.27349
2018-01-04 00:50:00+00:00,303.0,301.0,7.44,9.29,,47.59359,-54.27349
2018-01-04 01:00:00+00:00,302.0,305.0,5.87,7.42,,47.59359,-54.27349
2018-01-04 01:10:00+00:00,328.0,337.0,7.41,10.1,,47.59359,-54.27349
2018-01-04 01:20:00+00:00,310.0,306.0,7.3,8.91,,47.59359,-54.27349
2018-01-04 01:30:00+00:00,325.0,323.0,6.64,7.13,,47.59359,-54.27349
2018-01-04 01:40:00+00:00,306.0,322.0,5.1,6.17,,47.59359,-54.27349
2018-01-04 01:50:00+00:00,312.0,318.0,4.52,5.33,,47.59359,-54.27349
2018-01-04 02:00:00+00:00,298.0,299.0,6.49,7.23,,47.59359,-54.27349
2018-01-04 02:10:00+00:00,313.0,309.0,5.22,6.38,,47.59359,-54.27349
2018-01-04 02:20:00+00:00,327.0,335.0,4.94,6.05,,47.59359,-54.27349
2018-01-04 02:30:00+00:00,339.0,341.0,5.2,7.27,,47.59359,-54.27349
2018-01-04 02:40:00+00:00,326.0,325.0,4.2,5.86,,47.59359,-54.27349
2018-01-04 02:50:00+00:00,353.0,332.0,3.09,4.11,,47.59359,-54.27349
2018-01-04 03:00:00+00:00,354.0,349.0,4.43,5.35,,47.59359,-54.27349
2018-01-04 03:10:00+00:00,343.0,341.0,2.93,3.62,,47.59359,-54.27349
2018-01-04 03:20:00+00:00,342.0,338.0,4.84,5.66,,47.59359,-54.27349
2018-01-04 03:30:00+00:00,334.0,347.0,3.96,4.7,,47.59359,-54.27349
2018-01-04 03:40:00+00:00,312.0,309.0,3.69,4.47,,47.59359,-54.27349
2018-01-04 03:50:00+00:00,309.0,308.0,3.17,4.13,,47.59359,-54.27349
2018-01-04 04:00:00+00:00,304.0,304.0,3.37,4.04,,47.59359,-54.27349
2018-01-04 04:10:00+00:00,291.0,294.0,4.3,5.0,,47.59359,-54.27349
2018-01-04 04:20:00+00:00,289.0,296.0,4.44,5.09,,47.59359,-54.27349
2018-01-04 04:30:00+00:00,270.0,275.0,2.95,3.89,,47.59359,-54.27349
2018-01-04 04:40:00+00:00,288.0,290.0,3.43,4.06,,47.59359,-54.27349
2018-01-04 04:50:00+00:00,280.0,285.0,3.56,4.35,,47.59359,-54.27349
2018-01-04 05:00:00+00:00,272.0,267.0,3.74,5.36,,47.59359,-54.27349
2018-01-04 05:10:00+00:00,286.0,292.0,3.44,4.59,,47.59359,-54.27349
2018-01-04 05:20:00+00:00,289.0,291.0,3.19,4.07,,47.59359,-54.27349
2018-01-04 05:30:00+00:00,279.0,282.0,3.8,4.95,,47.59359,-54.27349
2018-01-04 05:40:00+00:00,294.0,303.0,3.95,4.76,,47.59359,-54.27349
2018-01-04 05:50:00+00:00,296.0,299.0,3.5,4.22,,47.59359,-54.27349
2018-01-04 06:00:00+00:00,281.0,294.0,3.61,5.04,,47.59359,-54.27349
2018-01-04 06:10:00+00:00,267.0,266.0,3.49,4.04,,47.59359,-54.27349
2018-01-04 06:20:00+00:00,286.0,279.0,2.2,2.58,,47.59359,-54.27349
2018-01-04 06:30:00+00:00,246.0,240.0,3.83,4.62,,47.59359,-54.27349
2018-01-04 06:40:00+00:00,228.0,223.0,4.51,5.81,,47.59359,-54.27349
2018-01-04 06:50:00+00:00,250.0,256.0,5.08,5.76,,47.59359,-54.27349
2018-01-04 07:00:00+00:00,253.0,255.0,5.38,5.98,,47.59359,-54.27349
2018-01-04 07:10:00+00:00,264.0,268.0,4.32,5.03,,47.59359,-54.27349
2018-01-04 07:20:00+00:00,264.0,260.0,3.49,4.15,,47.59359,-54.27349
2018-01-04 07:30:00+00:00,269.0,270.0,3.18,4.02,,47.59359,-54.27349
2018-01-04 07:40:00+00:00,280.0,278.0,4.01,4.8,,47.59359,-54.27349
2018-01-04 07:50:00+00:00,274.0,272.0,3.18,3.84,,47.59359,-54.27349
2018-01-04 08:00:00+00:00,291.0,278.0,2.22,2.85,,47.59359,-54.27349
2018-01-04 08:10:00+00:00,5.0,17.0,2.94,3.51,,47.59359,-54.27349
2018-01-04 08:20:00+00:00,323.0,323.0,3.28,4.06,,47.59359,-54.27349
2018-01-04 08:30:00+00:00,318.0,311.0,2.7,3.23,,47.59359,-54.27349
2018-01-04 08:40:00+00:00,310.0,313.0,2.47,3.18,,47.59359,-54.27349
2018-01-04 08:50:00+00:00,297.0,295.0,2.45,3.0,,47.59359,-54.27349
2018-01-04 09:00:00+00:00,318.0,316.0,1.96,2.51,,47.59359,-54.27349
2018-01-04 09:10:00+00:00,277.0,272.0,2.44,3.15,,47.59359,-54.27349
2018-01-04 09:20:00+00:00,259.0,257.0,1.41,1.85,,47.59359,-54.27349
2018-01-04 09:30:00+00:00,249.0,263.0,1.02,1.26,,47.59359,-54.27349
2018-01-04 09:40:00+00:00,312.0,324.0,2.32,3.15,,47.59359,-54.27349
2018-01-04 09:50:00+00:00,312.0,314.0,2.76,3.31,,47.59359,-54.27349
2018-01-04 10:00:00+00:00,293.0,291.0,4.38,5.36,,47.59359,-54.27349
2018-01-04 10:10:00+00:00,331.0,331.0,3.56,4.87,,47.59359,-54.27349
2018-01-04 10:20:00+00:00,340.0,336.0,2.35,3.06,,47.59359,-54.27349
2018-01-04 10:30:00+00:00,303.0,302.0,2.11,2.63,,47.59359,-54.27349
2018-01-04 10:40:00+00:00,332.0,307.0,2.23,2.99,,47.59359,-54.27349
2018-01-04 10:50:00+00:00,332.0,313.0,2.04,2.6,,47.59359,-54.27349
2018-01-04 11:00:00+00:00,323.0,310.0,0.95,1.53,,47.59359,-54.27349
2018-01-04 11:10:00+00:00,327.0,318.0,0.72,1.1,,47.59359,-54.27349
2018-01-04 11:20:00+00:00,293.0,294.0,0.93,1.45,,47.59359,-54.27349
2018-01-04 11:30:00+00:00,30.0,26.0,0.11,0.47,,47.59359,-54.27349
2018-01-04 11:40:00+00:00,32.0,37.0,1.47,1.78,,47.59359,-54.27349
2018-01-04 11:50:00+00:00,20.0,17.0,2.85,3.39,,47.59359,-54.27349
2018-01-04 12:00:00+00:00,16.0,12.0,1.8,2.24,,47.59359,-54.27349
2018-01-04 12:10:00+00:00,22.0,7.0,1.56,2.02,,47.59359,-54.27349
2018-01-04 12:20:00+00:00,12.0,11.0,0.52,0.76,,47.59359,-54.27349
2018-01-04 12:30:00+00:00,20.0,18.0,2.04,2.51,,47.59359,-54.27349
2018-01-04 12:40:00+00:00,27.0,33.0,2.62,3.24,,47.59359,-54.27349
2018-01-04 12:50:00+00:00,36.0,52.0,2.76,3.5,,47.59359,-54.27349
2018-01-04 13:00:00+00:00,33.0,40.0,2.47,3.1,,47.59359,-54.27349
2018-01-04 13:10:00+00:00,37.0,59.0,1.45,2.39,,47.59359,-54.27349
2018-01-04 13:20:00+00:00,67.0,84.0,1.48,2.18,,47.59359,-54.27349
2018-01-04 13:30:00+00:00,52.0,52.0,1.65,2.11,,47.59359,-54.27349
2018-01-04 13:40:00+00:00,43.0,47.0,2.04,2.8,,47.59359,-54.27349
2018-01-04 13:50:00+00:00,58.0,52.0,2.05,2.46,,47.59359,-54.27349
2018-01-04 14:00:00+00:00,47.0,48.0,2.4,3.03,,47.59359,-54.27349
2018-01-04 14:10:00+00:00,63.0,59.0,2.97,3.53,,47.59359,-54.27349
2018-01-04 14:20:00+00:00,34.0,32.0,1.31,2.07,,47.59359,-54.27349
2018-01-04 14:30:00+00:00,53.0,50.0,2.44,3.33,,47.59359,-54.27349
2018-01-04 14:40:00+00:00,132.0,138.0,1.79,2.11,,47.59359,-54.27349
2018-01-04 14:50:00+00:00,68.0,76.0,1.38,2.1,,47.59359,-54.27349
2018-01-04 15:00:00+00:00,128.0,128.0,2.55,3.38,,47.59359,-54.27349
2018-01-04 15:10:00+00:00,136.0,131.0,1.54,2.07,,47.59359,-54.27349
2018-01-04 15:20:00+00:00,148.0,159.0,0.53,1.23,,47.59359,-54.27349
2018-01-04 15:30:00+00:00,89.0,90.0,2.45,2.97,,47.59359,-54.27349
2018-01-04 15:40:00+00:00,80.0,75.0,2.59,3.06,,47.59359,-54.27349
2018-01-04 15:50:00+00:00,83.0,89.0,3.15,3.82,,47.59359,-54.27349
2018-01-04 16:00:00+00:00,85.0,84.0,3.35,4.39,,47.59359,-54.27349
2018-01-04 16:10:00+00:00,124.0,138.0,2.51,3.89,,47.59359,-54.27349
2018-01-04 16:20:00+00:00,84.0,88.0,2.28,3.0,,47.59359,-54.27349
2018-01-04 16:30:00+00:00,129.0,140.0,2.77,4.6,,47.59359,-54.27349
2018-01-04 16:40:00+00:00,141.0,127.0,3.76,4.85,,47.59359,-54.27349
2018-01-04 16:50:00+00:00,115.0,124.0,4.33,6.96,,47.59359,-54.27349
2018-01-04 17:00:00+00:00,105.0,102.0,3.58,5.99,,47.59359,-54.27349
2018-01-04 17:10:00+00:00,131.0,130.0,3.95,6.42,,47.59359,-54.27349
2018-01-04 17:20:00+00:00,99.0,100.0,3.43,5.1,,47.59359,-54.27349
2018-01-04 17:30:00+00:00,113.0,115.0,4.24,7.79,,47.59359,-54.27349
2018-01-04 17:40:00+00:00,97.0,107.0,3.39,5.64,,47.59359,-54.27349
2018-01-04 17:50:00+00:00,117.0,110.0,4.75,6.05,,47.59359,-54.27349
2018-01-04 18:00:00+00:00,114.0,133.0,3.65,5.61,,47.59359,-54.27349
2018-01-04 18:10:00+00:00,117.0,106.0,4.32,5.94,,47.59359,-54.27349
2018-01-04 18:20:00+00:00,122.0,115.0,4.05,7.57,,47.59359,-54.27349
2018-01-04 18:30:00+00:00,130.0,131.0,6.23,7.8,,47.59359,-54.27349
2018-01-04 18:40:00+00:00,110.0,108.0,4.93,7.34,,47.59359,-54.27349
2018-01-04 18:50:00+00:00,112.0,121.0,4.33,7.0,,47.59359,-54.27349
2018-01-04 19:00:00+00:00,130.0,129.0,7.9,9.43,,47.59359,-54.27349
2018-01-04 19:10:00+00:00,132.0,127.0,7.46,9.26,,47.59359,-54.27349
2018-01-04 19:20:00+00:00,132.0,133.0,6.79,8.3,,47.59359,-54.27349
2018-01-04 19:30:00+00:00,134.0,130.0,7.44,9.82,,47.59359,-54.27349
2018-01-04 19:40:00+00:00,134.0,131.0,7.44,9.89,,47.59359,-54.27349
2018-01-04 19:50:00+00:00,133.0,135.0,6.8,7.95,,47.59359,-54.27349
2018-01-04 20:00:00+00:00,133.0,136.0,7.53,10.04,,47.59359,-54.27349
2018-01-04 20:10:00+00:00,116.0,104.0,4.8,7.44,,47.59359,-54.27349
2018-01-04 20:20:00+00:00,115.0,116.0,5.18,8.57,,47.59359,-54.27349
2018-01-04 20:30:00+00:00,113.0,102.0,4.71,8.25,,47.59359,-54.27349
2018-01-04 20:40:00+00:00,119.0,133.0,5.67,8.51,,47.59359,-54.27349
2018-01-04 20:50:00+00:00,110.0,123.0,5.33,8.24,,47.59359,-54.27349
2018-01-04 21:00:00+00:00,114.0,121.0,7.45,11.78,,47.59359,-54.27349
2018-01-04 21:10:00+00:00,114.0,120.0,5.85,8.97,,47.59359,-54.27349
2018-01-04 21:20:00+00:00,101.0,114.0,5.68,8.82,,47.59359,-54.27349
2018-01-04 21:30:00+00:00,98.0,89.0,6.61,11.76,,47.59359,-54.27349
2018-01-04 21:40:00+00:00,116.0,109.0,6.63,9.47,,47.59359,-54.27349
2018-01-04 21:50:00+00:00,119.0,137.0,6.08,9.23,,47.59359,-54.27349
2018-01-04 22:00:00+00:00,120.0,132.0,6.11,10.01,,47.59359,-54.27349
2018-01-04 22:10:00+00:00,115.0,126.0,6.01,9.79,,47.59359,-54.27349
2018-01-04 22:20:00+00:00,109.0,100.0,4.81,7.32,,47.59359,-54.27349
2018-01-04 22:30:00+00:00,110.0,108.0,5.14,7.53,,47.59359,-54.27349
2018-01-04 22:40:00+00:00,117.0,129.0,7.0,12.14,,47.59359,-54.27349
2018-01-04 22:50:00+00:00,111.0,127.0,4.97,7.52,,47.59359,-54.27349
2018-01-04 23:00:00+00:00,121.0,142.0,7.0,11.07,,47.59359,-54.27349
2018-01-04 23:10:00+00:00,129.0,136.0,8.28,12.71,,47.59359,-54.27349
2018-01-04 23:20:00+00:00,114.0,146.0,6.03,10.3,,47.59359,-54.27349
2018-01-04 23:30:00+00:00,133.0,145.0,10.55,13.34,,47.59359,-54.27349
2018-01-04 23:40:00+00:00,136.0,141.0,11.8,14.23,,47.59359,-54.27349
2018-01-04 23:50:00+00:00,126.0,99.0,7.84,11.25,,47.59359,-54.27349
